Change the Weather History Date:

Saturday, March 1, 2014

  Actual Average Record
Temperature  
Mean Temperature 66 °F -  
Max Temperature 81 °F 60 °F 90 °F (2006)
Min Temperature 51 °F 41 °F 30 °F (2009)
Cooling Degree Days 1    
Growing Degree Days 16 (Base 50)    
Moisture  
Dew Point 55 °F    
Average Humidity 79    
Maximum Humidity 100    
Minimum Humidity 40    
Precipitation  
Precipitation 0.00 in - - ()
Sea Level Pressure  
Sea Level Pressure 29.90 in    
Wind  
Wind Speed 8 mph (SE)    
Max Wind Speed 18 mph    
Max Gust Speed 28 mph    
Visibility 6 miles    
Events Fog    
Averages and records for this station are not official NWS values.
T = Trace of Precipitation, MM = Missing Value Source: NWS Daily Summary

Daily Weather History Graph

Daily Weather History Graph

Search for Another Location

Airport or City:

Trip Planner

Search our weather history database for the weather conditions in past years. The results will help you decide how hot, cold, wet, or windy it might be!

Date:

Astronomy

Mar. 01, 2014 Rise Set
Actual Time 6:55 AM CST 6:24 PM CST
Civil Twilight 6:30 AM CST 6:49 PM CST
Nautical Twilight 6:01 AM CST 7:18 PM CST
Astronomical Twilight 5:33 AM CST 7:46 PM CST
Moon 6:52 AM CST (3/1) 7:08 PM CST (3/1)
Length of Visible Light 12h 18m
Length of Day
11h 29m
New Moon, 0% of the Moon is Illuminated
Mar 1
New Moon
Mar 8
First Quarter
Mar 16
Full
Mar 23
Last Quarter
Mar 30
New

Hourly Weather History & Observations

Time (CST) Temp. Heat Index Dew Point Humidity Pressure Visibility Wind Dir Wind Speed Gust Speed Precip Events Conditions
12:53 AM 60.1 °F - 52.0 °F 75% 29.83 in 10.0 mi East 8.1 mph - N/A   Partly Cloudy
1:53 AM 57.0 °F - 51.1 °F 81% 29.84 in 10.0 mi East 5.8 mph - N/A   Partly Cloudy
2:53 AM 55.0 °F - 52.0 °F 89% 29.84 in 10.0 mi East 6.9 mph - N/A   Clear
3:53 AM 54.0 °F - 52.0 °F 93% 29.85 in 8.0 mi ESE 5.8 mph - N/A   Clear
4:53 AM 52.0 °F - 50.0 °F 93% 29.87 in 5.0 mi ESE 4.6 mph - N/A   Partly Cloudy
5:26 AM 53.6 °F - 51.8 °F 94% 29.89 in 0.1 mi ESE 9.2 mph - N/A Fog Fog
5:43 AM 53.6 °F - 53.6 °F 100% 29.90 in 0.1 mi ESE 8.1 mph - N/A Fog Fog
5:53 AM 54.0 °F - 53.1 °F 97% 29.89 in 0.1 mi ESE 8.1 mph - N/A Fog Fog
6:15 AM 53.6 °F - 53.6 °F 100% 29.90 in 1.5 mi SE 8.1 mph - N/A   Mostly Cloudy
6:30 AM 51.8 °F - 51.8 °F 100% 29.91 in 1.5 mi SE 8.1 mph - N/A   Scattered Clouds
6:44 AM 51.8 °F - 51.8 °F 100% 29.91 in 4.0 mi SE 8.1 mph - N/A   Partly Cloudy
6:53 AM 52.0 °F - 51.1 °F 97% 29.90 in 4.0 mi SE 6.9 mph - N/A   Scattered Clouds
7:29 AM 53.6 °F - 51.8 °F 94% 29.93 in 2.5 mi ESE 4.6 mph - N/A   Scattered Clouds
7:38 AM 53.6 °F - 51.8 °F 94% 29.94 in 2.0 mi SE 5.8 mph - N/A   Mostly Cloudy
7:53 AM 54.0 °F - 53.1 °F 97% 29.94 in 2.5 mi SE 8.1 mph - N/A   Mostly Cloudy
8:20 AM 55.4 °F - 53.6 °F 94% 29.95 in 3.0 mi SSE 6.9 mph - N/A   Mostly Cloudy
8:53 AM 55.9 °F - 54.0 °F 93% 29.95 in 3.0 mi SE 8.1 mph - N/A   Mostly Cloudy
9:03 AM 57.2 °F - 53.6 °F 88% 29.97 in 4.0 mi SE 6.9 mph - N/A   Scattered Clouds
9:53 AM 61.0 °F - 53.1 °F 75% 29.97 in 5.0 mi SSE 9.2 mph - N/A   Haze
10:53 AM 63.0 °F - 53.1 °F 70% 29.97 in 8.0 mi SSE 6.9 mph - N/A   Partly Cloudy
11:53 AM 69.1 °F - 55.0 °F 61% 29.96 in 8.0 mi SE 9.2 mph - N/A   Partly Cloudy
12:53 PM 75.9 °F - 54.0 °F 46% 29.93 in 8.0 mi South 9.2 mph 19.6 mph N/A   Partly Cloudy
1:53 PM 80.1 °F 80.0 °F 54.0 °F 40% 29.89 in 10.0 mi South 10.4 mph 17.3 mph N/A   Scattered Clouds
2:53 PM 81.0 °F 80.8 °F 55.9 °F 42% 29.87 in 10.0 mi South 16.1 mph - N/A   Mostly Cloudy
3:53 PM 78.1 °F - 61.0 °F 56% 29.87 in 10.0 mi South 18.4 mph - N/A   Mostly Cloudy
4:53 PM 73.9 °F - 61.0 °F 64% 29.86 in 10.0 mi South 18.4 mph 27.6 mph N/A   Overcast
5:53 PM 73.0 °F - 61.0 °F 66% 29.87 in 10.0 mi SSE 16.1 mph 25.3 mph N/A   Overcast
6:53 PM 72.0 °F - 61.0 °F 68% 29.88 in 10.0 mi South 10.4 mph - N/A   Overcast
7:53 PM 71.1 °F - 60.1 °F 68% 29.89 in 10.0 mi SSE 9.2 mph - N/A   Mostly Cloudy
8:53 PM 71.1 °F - 61.0 °F 70% 29.88 in 10.0 mi SSE 12.7 mph - N/A   Mostly Cloudy
9:53 PM 71.1 °F - 61.0 °F 70% 29.88 in 10.0 mi SSE 15.0 mph - N/A   Overcast
10:53 PM 70.0 °F - 61.0 °F 73% 29.92 in 10.0 mi South 9.2 mph - N/A   Mostly Cloudy
11:22 PM 69.8 °F - 60.8 °F 73% 29.92 in 10.0 mi South 8.1 mph - N/A   Overcast
11:53 PM 70.0 °F - 62.1 °F 76% 29.91 in 10.0 mi SSW 6.9 mph - N/A   Overcast